Regional Weather Roundup
Issued by NWS

Home | Current Version | Previous Version | Graphics & Text | Print | Product List | Glossary On
Versions: 1 2 3 4 5 6 7 8 9 10 11 12 13 14 15 16 17 18 19 20 21 22 23 24 25 26 27 28 29 30 31 32 33 34 35 36 37 38 39 40 41 42 43 44 45 46 47 48 49 50
000
ASUS43 KDMX 310504
RWRIA

WEATHER ROUNDUP FOR IOWA
NATIONAL WEATHER SERVICE DES MOINES IA
  ISSUED BY NWS QUAD CITIES IA IL
1100 PM CST FRI JAN 30 2015

NOTE: "FAIR" INDICATES FEW OR NO CLOUDS BELOW 12,000 FEET WITH NO
SIGNIFICANT WEATHER AND/OR OBSTRUCTIONS TO VISIBILITY.

* - THESE STATIONS ARE NOT NWS STATIONS...THUS NOT UNDER NWS
QUALITY CONTROL.  THEY ALSO DO NOT REPORT WEATHER SUCH
AS PRECIPITATION OR FOG.

IAZ001>003-012>014-020>022-031>034-043>046-310600-
   NORTHWEST IOWA

CITY           SKY/WX    TMP DP  RH WIND       PRES   REMARKS
CARROLL *      PTCLDY    30  23  74 CALM      30.24R
CHEROKEE *     CLEAR     28  25  91 S5        30.19F WCI  22
DENNISON *     PTCLDY    30  25  80 SW9       30.21S WCI  22
LE MARS *      PTCLDY    30  27  86 S8        30.19S WCI  23
ORANGE CITY *  CLEAR     28  25  86 S7        30.16F WCI  21
SHELDON *      CLEAR     28  27  93 S8        30.15F WCI  20
SIOUX CITY     PTCLDY    28  24  85 SE9       30.20F WCI  19
SPENCER        CLEAR     30  24  78 SW13      30.17F WCI  20
STORM LAKE *   CLEAR     28  25  86 SW12      30.19F WCI  18
$$

IAZ055>058-069>071-079>083-090>094-310600-
   SOUTHWEST IOWA

CITY           SKY/WX    TMP DP  RH WIND       PRES   REMARKS
ATLANTIC *     MOCLDY    30  23  74 S10       30.25F WCI  21
AUDUBON *      MOCLDY    30  21  69 S15       30.24F WCI  19
CLARINDA *     CLOUDY    28  21  74 S5        30.32F WCI  23
COUNCIL BLFS * CLOUDY    36  27  69 SW15G23   30.23F WCI  26
CRESTON *      CLOUDY    30  19  64 SW14      30.28F WCI  20
HARLAN *       PTCLDY    30  25  80 S10       30.27F WCI  21
LAMONI         CLOUDY    29  17  61 S12       30.30F WCI  19
RED OAK *      CLOUDY    32  23  69 S10       30.28F WCI  24
SHENANDOAH *   CLOUDY    32  23  69 S5        30.30F WCI  27
$$

IAZ047>049-059>061-072>074-084-310600-
   CENTRAL IOWA

CITY           SKY/WX    TMP DP  RH WIND       PRES   REMARKS
AMES           CLEAR     23  17  78 S5        30.28S WCI  17
ANKENY *       PTCLDY    30  16  55 SW7       30.29S WCI  23
BOONE *        PTCLDY    28  19  69 SW8G17    30.25S WCI  20
CHARITON *     MOCLDY    28  19  69 S9        30.30S WCI  20
DES MOINES     PTCLDY    28  16  60 S8        30.29F WCI  20
GRINNELL *     MOCLDY    27  18  69 S8        30.29S WCI  19
KNOXVILLE *    CLOUDY    28  18  64 SW9       30.29S WCI  20
MARSHALLTOWN   MOCLDY    27  17  66 SW9       30.27S WCI  18
NEWTON *       CLEAR     27  18  69 SW8       30.30R WCI  18
PELLA *        FAIR      27  19  71 S3        30.32S
PERRY *          N/A     27  21  80 S3        30.27S
$$

IAZ004>006-015-016-023>025-035-036-310600-
   NORTH CENTRAL IOWA

CITY           SKY/WX    TMP DP  RH WIND       PRES   REMARKS
ALGONA *       CLEAR     27  25  93 S12       30.20F WCI  16
CLARION *      CLEAR     27  23  86 S12       30.22F WCI  16
ESTHERVILLE    CLEAR     28  23  81 SW15      30.16F WCI  16
FORT DODGE *   PTCLDY    27  18  69 S10       30.23F WCI  17
MASON CITY     CLEAR     20  16  84 S7        30.23F WCI  11
WEBSTER CITY * CLEAR     28  21  74 S10       30.22F WCI  19
IOWA FALLS *   FAIR      27  19  72 S9        30.25F WCI  17
$$

IAZ007>011-017>019-026>030-037>042-050>054-066-310600-
   NORTHEAST IOWA

CITY           SKY/WX    TMP DP  RH WIND       PRES   REMARKS
CEDAR RAPIDS   PTCLDY    22  16  78 S9        30.30F WCI  12
CHARLES CITY * CLEAR     21  16  79 S9        30.26F WCI  11
CLINTON *      CLEAR     21  16  79 S7        30.37F WCI  13
DECORAH *      PTCLDY    23  12  63 S8G14     30.25F WCI  14
DUBUQUE        CLOUDY    21  16  81 S10       30.30S WCI  10
MONTICELLO *   MOCLDY    21  18  86 S6        30.32S WCI  14
OELWEIN *      CLEAR     21  16  79 S10       30.28F WCI  10
WATERLOO       CLEAR     22  15  75 S3        30.29R
$$

IAZ064-065-067-068-078-310600-
   EAST CENTRAL IOWA

CITY           SKY/WX    TMP DP  RH WIND       PRES   REMARKS
DAVENPORT      PTCLDY    20  14  77 S7        30.35F WCI  11
IOWA CITY      CLEAR     21  18  88 S3        30.34F
MT. PLEASANT * CLEAR     25  20  80 S6        30.35S WCI  18
MUSCATINE *    CLEAR     27  19  74 CALM      30.36F
QUAD CITIES    PTCLDY    21  16  81 CALM      30.35F
$$

IAZ062-063-075>077-085>089-095>099-310600-
   SOUTHEAST IOWA

CITY           SKY/WX    TMP DP  RH WIND       PRES   REMARKS
BURLINGTON     CLEAR     26  19  74 S6        30.35F WCI  19
FAIRFIELD *    CLEAR     27  18  69 SW9       30.33S WCI  17
FORT MADISON * CLEAR     27  19  74 S7        30.35F WCI  19
KEOKUK *       PTCLDY    27  19  74 S8        30.35F WCI  18
OTTUMWA        MOCLDY    25  17  72 S8        30.31F WCI  16
WASHINGTON *   CLEAR     25  21  86 S8        30.33F WCI  16
$$

ABBREVIATIONS USED IN REMARKS
   TC - TEMPERATURES IN CELSIUS
  WCI - WIND CHILL INDEX
   HX - HEAT INDEX
  VSB - VISIBILITY
$$



USA.gov is the U.S. government's official web portal to all federal, state and local government web resources and services.